Presure
215 228 218 209 212 206 213 230 223 204 206 216 224 218 227 232 259 253 266 264 280 290 279 340 319 314 391 396 392 364 372 383 395 322 322 342 325 333 267 261 243 256 260 253
225 216 210 234 232 227 224 228 222 218 222 227 232 229 254 232 249 261 262 273 284 273 335 315 387 424 419 402 400 384 358 366 366 382 335 333 321 316 280 270 253 260 257 254
239 243 225 241 242 229 225 226 220 226 226 237 234 249 267 268 264 263 287 280 270 329 310 436 443 430 424 423 401 382 364 352 350 357 387 313 218 310 156 270 269 257 253 252
265 255 241 234 236 239 232 224 228 235 224 244 244 248 249 250 264 279 273 268 326 308 447 425 405 398 386 401 372 359 353 351 350 348 362 385 318 318 314 301 269 252 259 254
252 253 253 238 238 238 240 247 277 257 243 258 257 253 257 260 283 269 265 307 308 398 429 410 392 400 383 362 357 348 344 227 353 359 368 369 400 325 303 317 283 273 267 259
252 251 251 254 252 252 252 246 249 251 250 242 256 262 262 275 263 263 287 313 398 428 412 394 379 370 361 350 345 342 341 350 344 346 367 386 205 393 305 300 305 279 274 271
253 252 245 245 248 247 245 253 246 244 239 240 252 263 271 262 256 272 317 329 420 433 401 377 364 362 371 378 373 367 355 359 365 96 396 336 110 381 336 312 313 315 286 279
248 244 243 242 247 244 241 241 248 249 239 256 260 264 259 251 261 305 284 373 409 411 386 366 352 342 340 330 330 326 329 337 343 352 363 288 393 384 386 389 299 307 238 309
242 243 243 245 239 241 248 248 241 246 255 264 263 256 250 254 281 300 369 361 435 407 373 353 342 327 313 320 328 327 323 324 329 335 349 356 359 379 404 294 411 321 299 99
249 250 244 253 256 243 244 249 245 259 259 257 251 247 252 267 303 291 355 351 436 390 363 341 327 326 312 316 321 315 323 323 317 329 337 340 343 364 379 394 365 374 367 259
258 254 247 249 246 240 244 250 258 260 257 244 242 248 259 289 290 314 343 336 445 383 346 332 324 317 319 314 313 317 330 343 350 329 326 310 350 364 356 327 324 321 327 312
249 245 253 252 252 241 254 262 258 252 242 238 246 250 265 296 289 316 332 327 402 357 333 330 331 322 311 315 315 315 313 317 338 343 345 342 304 292 303 297 297 307 313 320
255 249 250 248 245 256 253 252 251 243 237 244 246 259 270 286 290 341 332 332 340 348 316 324 313 309 322 312 309 299 302 298 322 309 297 285 290 292 292 293 295 299 302 303
253 249 243 253 258 256 256 245 241 238 244 244 252 263 286 276 306 343 330 342 357 348 323 330 310 313 315 300 299 306 294 296 310 282 286 291 290 291 294 293 293 287 300 303
255 251 257 262 252 238 244 239 238 240 243 249 258 260 280 282 314 342 331 323 367 342 339 301 320 317 309 289 293 293 281 300 295 283 282 282 281 289 287 298 306 277 278 284
262 259 251 241 239 242 237 243 242 245 248 258 260 285 271 304 328 335 342 351 357 347 315 317 308 305 292 291 290 294 283 294 296 264 282 288 271 273 284 281 270 272 280 285
241 241 240 236 239 242 239 241 249 248 256 254 278 267 288 311 347 333 396 437 345 343 306 302 313 312 297 292 291 268 271 286 288 274 281 274 270 272 280 296 296 289 289 295
240 242 245 245 244 243 245 250 248 259 257 283 268 274 291 319 331 308 452 391 328 356 301 290 311 305 290 288 278 284 296 278 284 277 280 267 289 284 288 279 289 285 287 296
250 251 249 249 248 247 252 254 261 271 271 261 272 281 311 333 328 342 324 323 358 299 302 293 285 296 278 294 294 289 267 278 292 277 299 279 261 283 282 278 279 284 285 291
256 252 250 251 253 258 263 269 284 269 272 274 282 299 329 323 331 347 323 309 276 339 290 280 294 275 268 274 257 279 267 276 271 300 278 279 268 270 273 289 295 297 294 288
260 258 254 253 258 274 285 272 273 276 279 291 299 313 327 308 326 313 355 320 321 326 287 298 272 271 270 273 269 273 277 280 257 282 273 270 271 275 282 278 282 279 293 289
274 280 283 281 275 278 279 279 280 283 290 312 332 345 315 308 286 313 335 346 334 294 292 284 284 274 271 282 258 286 283 285 280 266 267 282 284 283 283 281 274 263 279 286
272 271 271 271 280 289 290 289 298 292 318 362 363 327 297 313 296 301 336 337 348 368 284 285 282 279 269 283 274 272 269 269 269 274 276 277 282 283 284 286 287 288 288 290
287 291 295 300 306 309 322 339 350 322 374 370 321 303 294 307 292 286 309 315 311 293 293 281 277 279 281 277 266 266 263 268 274 279 280 278 276 276 275 275 275 277 282 285
374 375 378 384 403 384 391 352 340 357 362 316 305 293 309 296 280 280 305 261 261 263 281 257 257 263 264 266 275 276 275 274 269 268 269 277 271 271 270 272 275 278 285 288
364 359 345 266 329 363 343 333 339 362 308 299 291 294 318 292 283 283 299 276 263 278 281 278 275 275 277 274 277 274 271 271 280 271 268 268 270 273 245 275 275 276 278 297
319 310 312 361 347 335 331 340 339 301 293 292 288 298 317 294 283 288 274 269 283 276 273 276 279 275 273 267 266 261 273 271 262 264 264 276 274 322 311 296 292 298 311 317
Wind_Speed
94 100 91 85 91 90 93 93 94 91 92 94 92 93 100 101 97 97 93 92 92 88 88 77 75 75 59 55 48 44 45 42 39 54 62 60 63 69 76 73 69 65 65 69
102 96 93 102 100 96 94 93 92 95 94 94 97 96 94 99 97 93 91 91 87 86 79 76 62 48 45 44 41 36 43 38 36 36 54 56 61 69 74 76 74 68 68 69
100 100 95 96 97 96 95 94 92 95 95 95 94 92 84 85 88 89 84 84 85 80 77 40 23 23 22 25 27 30 33 35 36 38 31 60 40 69 32 77 76 73 72 73
81 94 93 91 92 93 94 92 94 96 91 90 91 91 91 88 84 81 79 82 78 76 25 21 18 16 17 14 20 24 28 31 34 35 34 40 63 65 70 78 76 73 79 80
75 76 78 86 85 89 90 90 66 80 83 79 81 86 84 82 77 76 78 79 74 52 15 14 18 11 11 18 18 21 23 25 29 30 32 38 40 65 72 72 78 78 83 79
70 74 73 71 72 76 74 77 75 74 74 79 77 75 78 75 73 75 78 73 53 14 10 7 8 8 11 14 18 18 20 22 26 25 28 29 17 36 69 74 79 80 81 78
67 68 70 69 70 71 71 70 73 74 75 77 73 71 69 68 72 74 72 65 25 8 5 5 3 3 0 7 4 1 3 3 3 11 9 11 10 38 61 73 75 79 79 78
67 67 67 67 69 70 70 70 69 70 72 69 68 66 66 67 71 72 67 52 21 7 6 8 10 10 16 12 11 10 6 4 3 6 2 5 9 17 31 41 68 75 46 77
67 67 65 68 67 68 67 67 68 68 66 64 61 62 62 65 72 67 53 46 7 10 15 17 17 15 5 6 7 7 3 1 1 2 2 3 2 0 2 16 19 57 58 16
65 64 65 65 62 67 66 64 63 60 59 57 59 60 61 67 66 62 47 41 6 15 21 20 18 17 8 11 11 5 3 3 1 0 4 3 1 3 7 9 13 17 13 15
58 61 64 64 65 64 63 62 58 54 53 57 57 59 63 67 63 53 43 36 6 20 20 19 17 15 16 13 9 9 15 11 6 7 6 4 4 16 27 24 24 22 21 30
61 64 60 62 58 60 59 56 51 48 51 54 56 60 63 60 58 50 39 32 9 19 14 16 19 19 16 18 17 18 18 14 12 8 9 24 35 26 30 25 26 28 23 19
59 61 59 59 59 57 52 50 49 48 49 53 55 61 62 57 53 46 35 27 16 17 6 12 14 13 23 23 23 19 19 16 18 40 34 22 26 29 28 29 28 28 28 29
59 60 58 59 56 52 50 48 47 49 52 52 57 61 61 54 47 40 32 23 9 22 8 20 12 20 23 20 20 24 20 18 33 14 18 26 26 26 28 26 23 17 23 25
55 57 57 52 50 50 49 46 47 50 53 56 56 56 56 51 44 36 30 20 10 21 21 11 21 27 26 20 22 24 19 19 33 23 17 17 10 14 7 12 17 10 12 12
58 55 52 51 51 51 48 47 48 52 56 60 56 54 52 46 42 32 29 17 9 23 17 25 19 20 19 22 22 27 19 25 31 15 21 19 13 12 8 11 19 17 16 13
55 55 53 52 53 50 49 50 53 55 58 55 56 51 46 44 37 29 24 15 11 23 19 21 25 30 27 24 23 15 14 21 23 16 22 16 11 9 10 5 7 9 9 10
58 59 58 56 52 51 55 56 54 60 57 56 51 48 44 40 30 20 9 16 8 31 19 15 26 27 22 19 15 14 16 16 18 17 22 11 18 14 11 9 8 10 10 10
64 61 57 55 56 60 58 59 59 64 57 50 45 45 42 33 25 15 14 12 18 19 20 20 19 23 19 20 20 19 18 12 15 9 22 15 13 8 10 10 9 11 11 10
63 59 58 61 66 64 65 65 60 57 55 48 40 42 31 27 24 14 12 14 20 26 21 21 19 21 20 14 13 15 17 14 15 12 12 10 12 10 10 13 12 12 12 12
64 63 64 65 68 71 65 58 56 54 54 48 37 34 23 22 20 13 9 18 16 22 23 25 20 23 22 19 17 16 15 13 14 12 12 12 13 14 14 14 13 13 12 12
72 77 75 72 67 62 58 55 53 54 59 48 34 24 22 18 14 13 14 16 19 23 26 25 26 25 22 20 14 13 13 13 14 15 15 15 15 16 16 17 17 18 16 16
72 69 67 64 64 62 56 54 55 58 59 35 21 25 23 20 16 11 15 13 16 20 26 28 28 23 19 15 14 14 15 15 17 18 19 18 18 18 18 19 20 21 21 21
72 71 70 67 65 58 56 49 37 30 24 19 29 27 24 24 17 15 16 17 23 26 29 25 22 20 18 17 20 21 20 19 20 19 18 18 18 18 19 21 22 23 24 26
45 45 43 39 35 32 26 30 34 24 20 31 29 28 24 25 23 20 22 20 20 20 26 21 22 22 22 23 24 22 20 19 19 20 20 20 22 24 26 28 30 30 32 32
34 30 28 22 34 32 33 33 24 21 33 32 30 26 28 28 25 22 24 23 23 24 26 25 26 25 24 23 23 23 23 23 21 22 24 26 27 29 25 30 31 33 34 34
30 31 34 35 38 37 33 25 27 33 33 30 27 26 35 31 28 25 25 25 28 28 27 25 25 25 25 25 27 27 25 24 26 26 28 31 30 24 10 11 13 14 17 21
Wind_Direction
260 261 264 264 267 268 271 276 276 278 282 284 287 288 290 292 288 290 291 293 297 296 295 302 298 295 289 285 280 272 269 264 258 243 242 237 234 234 237 238 240 236 234 235
257 261 264 265 268 269 271 274 276 279 281 284 285 288 286 290 289 291 293 296 296 296 305 302 298 289 283 281 275 266 265 260 251 246 236 233 229 233 233 234 239 234 233 233
254 257 261 263 263 267 271 273 276 278 281 283 284 284 285 286 290 293 298 297 297 306 305 304 299 297 287 279 272 263 257 253 246 240 235 231 230 226 235 232 232 232 233 234
252 257 260 263 265 266 268 273 275 278 281 279 281 282 285 290 294 297 296 297 308 307 310 302 292 277 284 286 265 259 255 251 246 239 234 232 227 224 227 227 231 230 231 234
253 255 257 261 265 268 269 271 269 269 274 275 279 282 288 293 298 296 298 309 310 316 304 287 291 276 257 259 261 257 256 249 254 250 242 237 232 220 225 229 229 230 231 235
248 253 255 257 261 264 266 268 271 272 275 277 281 286 293 295 296 298 308 314 323 296 289 276 281 275 267 261 260 263 260 261 260 256 254 249 234 236 223 226 229 231 234 232
247 248 254 259 260 262 265 267 268 273 276 280 286 293 294 295 296 305 315 318 319 286 222 257 299 291 234 71 79 149 75 44 349 215 304 273 242 228 226 227 229 232 235 238
247 251 253 257 257 261 264 268 270 272 278 283 290 292 294 296 302 315 315 329 321 195 176 127 118 121 122 148 164 194 217 234 283 254 277 245 279 240 235 232 232 235 234 241
247 251 254 255 259 261 264 266 272 275 280 288 290 291 295 300 311 316 333 332 251 182 151 141 138 143 224 192 148 119 124 137 322 344 100 71 299 112 198 229 232 238 239 256
247 250 252 255 257 260 264 267 272 278 284 287 288 292 300 307 314 316 333 334 265 173 160 152 152 148 154 143 122 143 155 138 285 205 98 121 218 217 151 164 198 227 180 215
243 246 250 252 256 261 265 270 274 279 283 284 289 297 304 314 313 322 335 335 221 160 162 165 160 158 150 142 130 104 84 60 131 120 105 101 277 131 120 141 151 176 181 222
244 248 249 253 257 262 268 270 273 277 280 285 294 298 308 313 312 325 331 334 181 170 195 176 157 156 164 123 113 110 101 99 90 114 145 121 118 139 142 163 183 178 181 198
242 248 253 254 258 262 265 270 274 278 281 290 295 303 308 311 313 327 330 332 325 196 315 187 173 175 138 132 127 128 112 119 120 125 134 154 155 159 165 174 187 193 199 207
246 247 251 256 258 261 263 267 274 280 287 292 298 303 307 307 316 325 325 322 268 199 224 172 195 160 140 140 142 126 133 129 140 150 160 163 169 175 179 194 198 219 215 225
242 245 248 252 255 259 263 268 276 283 288 292 299 301 303 305 318 322 320 310 247 211 187 216 175 154 146 163 154 138 151 127 152 159 172 175 185 186 178 216 219 203 213 230
240 242 246 251 255 260 265 273 277 283 287 294 297 299 299 310 319 318 315 292 234 207 186 192 189 175 177 166 163 157 170 149 159 179 178 183 195 202 196 196 204 215 225 232
243 246 250 253 257 263 268 273 279 283 287 290 295 295 303 311 316 315 304 225 222 196 189 190 179 163 173 169 169 171 174 163 163 181 192 199 201 201 207 213 224 242 256 277
245 248 251 255 261 266 269 274 277 282 286 289 290 295 301 309 312 292 226 195 227 190 183 181 187 174 178 177 171 183 181 174 179 190 200 212 213 219 223 228 247 251 260 267
246 249 254 260 264 265 270 273 277 283 283 284 290 296 303 304 303 291 243 211 191 200 180 185 181 194 175 174 174 176 195 171 193 194 202 211 218 212 225 235 253 262 271 269
249 253 257 260 261 265 269 275 276 277 279 282 290 295 295 292 295 291 229 207 226 185 186 187 190 185 201 191 225 177 209 211 210 228 218 224 234 246 254 269 272 270 269 267
250 253 255 256 260 265 267 270 273 276 278 282 290 286 274 273 279 264 215 218 189 190 196 187 192 197 204 201 216 217 211 211 234 229 233 243 250 259 261 261 263 264 262 261
248 250 253 256 260 263 266 270 274 276 276 280 285 265 245 253 240 253 231 206 197 199 189 189 190 206 215 208 232 228 225 230 235 236 244 256 258 259 260 261 258 255 260 260
246 249 252 256 260 262 266 269 272 269 271 277 255 221 225 224 223 227 214 197 196 197 203 197 201 210 219 219 226 229 231 237 241 248 252 257 263 268 274 276 277 277 275 268
246 249 252 254 258 263 264 260 251 250 253 241 210 211 213 208 200 198 195 180 183 195 192 200 209 210 210 219 232 236 243 249 254 263 270 273 275 277 271 268 264 263 265 264
225 229 233 235 234 232 210 217 229 228 226 199 205 207 207 199 198 190 198 202 208 208 201 220 228 228 233 239 237 244 254 257 256 258 260 262 261 261 261 263 264 267 268 265
206 206 208 209 216 184 193 208 208 214 191 200 202 205 204 201 194 195 207 204 215 205 205 211 220 228 232 239 243 246 250 253 254 256 259 264 267 269 265 275 275 275 274 276
198 204 208 176 181 188 194 190 182 186 196 198 199 205 201 201 200 192 198 210 208 215 224 225 228 233 237 243 246 251 256 257 257 261 265 270 271 290 275 291 299 318 317 302